When you browse on this site, cookies collect data to enhance your experience and personalize the content and advertising you see.
Visit our Privacy Policy to learn more. By continuing to use the site, you agree to this use of cookies and data.
  • en France
  • Liste des pays
  • À 7 jours
  • Température de l'eau
  • Carte satellitaire
  • Carte météo
  • Widgets météo
  • user-avatar
    Se connecter

    Météo par heure à Minguetschaour

    Ce jour, 20 Avril, Samedi

    Heure Température Précipitation Vent Pression Humidité
    00:00 +4°C° 0.4 mm 6 m/s 753 mmHg 86%
    01:00 +5°C° 0.5 mm 5 m/s 753 mmHg 86%
    02:00 +5°C° 0.5 mm 5 m/s 753 mmHg 86%
    03:00 +5°C° 0.5 mm 5 m/s 752 mmHg 86%
    04:00 +5°C° 1 mm 5 m/s 753 mmHg 86%
    05:00 +5°C° 1 mm 4 m/s 753 mmHg 85%
    06:00 +5°C° 1 mm 4 m/s 753 mmHg 85%
    07:00 +5°C° 0.8 mm 4 m/s 753 mmHg 83%
    08:00 +6°C° 0.8 mm 4 m/s 753 mmHg 81%
    09:00 +6°C° 0.8 mm 4 m/s 754 mmHg 80%
    10:00 +7°C° 0.3 mm 4 m/s 754 mmHg 76%
    11:00 +8°C° 0.3 mm 5 m/s 754 mmHg 72%
    12:00 +9°C° 0.3 mm 5 m/s 754 mmHg 68%
    13:00 +10°C° 0 mm 5 m/s 754 mmHg 66%
    14:00 +10°C° 0 mm 5 m/s 754 mmHg 63%
    15:00 +12°C° 0 mm 5 m/s 754 mmHg 60%
    16:00 +10°C° 0 mm 5 m/s 754 mmHg 63%
    17:00 +10°C° 0 mm 5 m/s 755 mmHg 66%
    18:00 +9°C° 0 mm 5 m/s 755 mmHg 69%
    19:00 +8°C° 0 mm 5 m/s 755 mmHg 72%
    20:00 +8°C° 0 mm 5 m/s 756 mmHg 75%
    21:00 +7°C° 0 mm 5 m/s 756 mmHg 78%
    22:00 +6°C° 0 mm 5 m/s 756 mmHg 78%
    23:00 +6°C° 0 mm 5 m/s 756 mmHg 78%

    Demain, 21 Avril, Dimanche

    Heure Température Précipitation Vent Pression Humidité
    00:00 +6°C° 0 mm 5 m/s 756 mmHg 78%
    01:00 +5°C° 0 mm 4 m/s 756 mmHg 80%
    02:00 +5°C° 0 mm 4 m/s 756 mmHg 82%
    03:00 +4°C° 0 mm 3 m/s 756 mmHg 85%
    04:00 +4°C° 0 mm 3 m/s 756 mmHg 85%
    05:00 +4°C° 0 mm 3 m/s 756 mmHg 85%
    06:00 +5°C° 0 mm 2 m/s 756 mmHg 85%
    07:00 +7°C° 0 mm 3 m/s 756 mmHg 78%
    08:00 +7°C° 0 mm 4 m/s 756 mmHg 71%
    09:00 +9°C° 0 mm 5 m/s 756 mmHg 64%
    10:00 +10°C° 0 mm 5 m/s 756 mmHg 61%
    11:00 +12°C° 0 mm 5 m/s 756 mmHg 59%
    12:00 +12°C° 0 mm 5 m/s 755 mmHg 56%
    13:00 +13°C° 0 mm 5 m/s 755 mmHg 55%
    14:00 +13°C° 0 mm 5 m/s 755 mmHg 55%
    15:00 +13°C° 0 mm 5 m/s 754 mmHg 54%
    16:00 +13°C° 0 mm 5 m/s 754 mmHg 57%
    17:00 +12°C° 0 mm 4 m/s 754 mmHg 59%
    18:00 +12°C° 0 mm 4 m/s 755 mmHg 62%
    19:00 +11°C° 0 mm 4 m/s 755 mmHg 64%
    20:00 +10°C° 0 mm 4 m/s 756 mmHg 67%
    21:00 +10°C° 0 mm 4 m/s 756 mmHg 70%
    22:00 +8°C° 0 mm 4 m/s 756 mmHg 72%
    23:00 +8°C° 0 mm 4 m/s 756 mmHg 74%

    Après-demain, 22 Avril, Lundi

    Heure Température Précipitation Vent Pression Humidité
    00:00 +7°C° 0 mm 4 m/s 756 mmHg 77%
    01:00 +7°C° 0 mm 4 m/s 756 mmHg 78%
    02:00 +8°C° 0 mm 3 m/s 756 mmHg 78%
    03:00 +7°C° 0 mm 3 m/s 756 mmHg 79%
    04:00 +7°C° 0 mm 2 m/s 756 mmHg 80%
    05:00 +7°C° 0 mm 2 m/s 756 mmHg 80%
    06:00 +7°C° 0 mm 2 m/s 756 mmHg 81%
    07:00 +8°C° 0 mm 3 m/s 756 mmHg 75%
    08:00 +9°C° 0 mm 3 m/s 756 mmHg 69%
    09:00 +11°C° 0 mm 3 m/s 756 mmHg 63%
    10:00 +11°C° 0 mm 4 m/s 755 mmHg 61%
    11:00 +12°C° 0 mm 4 m/s 755 mmHg 58%
    12:00 +12°C° 0 mm 4 m/s 754 mmHg 56%
    13:00 +12°C° 0 mm 4 m/s 754 mmHg 57%
    14:00 +12°C° 0 mm 5 m/s 754 mmHg 59%
    15:00 +13°C° 0 mm 5 m/s 753 mmHg 60%
    16:00 +12°C° 0.1 mm 4 m/s 754 mmHg 63%
    17:00 +12°C° 0.1 mm 4 m/s 754 mmHg 67%
    18:00 +11°C° 0.1 mm 4 m/s 754 mmHg 70%
    19:00 +11°C° 0.3 mm 4 m/s 755 mmHg 72%
    20:00 +10°C° 0.3 mm 4 m/s 755 mmHg 75%
    21:00 +9°C° 0.3 mm 5 m/s 756 mmHg 77%
    22:00 +8°C° 0.7 mm 5 m/s 756 mmHg 76%
    23:00 +8°C° 0.7 mm 5 m/s 756 mmHg 75%

    23 Avril, Mardi

    Heure Température Précipitation Vent Pression Humidité
    00:00 +8°C° 0.7 mm 5 m/s 757 mmHg 74%
    01:00 +8°C° 0.7 mm 4 m/s 757 mmHg 75%
    02:00 +8°C° 0.7 mm 3 m/s 757 mmHg 76%
    03:00 +8°C° 0.7 mm 2 m/s 757 mmHg 78%
    04:00 +8°C° 0.5 mm 2 m/s 758 mmHg 78%
    05:00 +8°C° 0.5 mm 2 m/s 758 mmHg 79%
    06:00 +9°C° 0.5 mm 1 m/s 759 mmHg 80%
    07:00 +10°C° 0.1 mm 1 m/s 759 mmHg 74%
    08:00 +10°C° 0.1 mm 2 m/s 759 mmHg 68%
    09:00 +12°C° 0.1 mm 2 m/s 759 mmHg 63%
    10:00 +12°C° 0 mm 3 m/s 759 mmHg 60%
    11:00 +13°C° 0 mm 3 m/s 759 mmHg 57%
    12:00 +14°C° 0 mm 4 m/s 759 mmHg 54%
    13:00 +14°C° 0 mm 5 m/s 759 mmHg 52%
    14:00 +15°C° 0 mm 5 m/s 759 mmHg 51%
    15:00 +15°C° 0 mm 6 m/s 759 mmHg 49%
    16:00 +14°C° 0 mm 6 m/s 759 mmHg 52%
    17:00 +13°C° 0 mm 6 m/s 760 mmHg 55%
    18:00 +11°C° 0 mm 6 m/s 760 mmHg 57%
    19:00 +12°C° 0 mm 5 m/s 761 mmHg 59%
    20:00 +11°C° 0 mm 4 m/s 761 mmHg 61%
    21:00 +10°C° 0 mm 4 m/s 762 mmHg 63%
    22:00 +10°C° 0 mm 3 m/s 762 mmHg 63%
    23:00 +9°C° 0 mm 3 m/s 762 mmHg 63%

    24 Avril, Mercredi

    Heure Température Précipitation Vent Pression Humidité
    00:00 +9°C° 0 mm 2 m/s 762 mmHg 64%
    01:00 +9°C° 0 mm 2 m/s 762 mmHg 67%
    02:00 +9°C° 0 mm 1 m/s 762 mmHg 69%
    03:00 +9°C° 0 mm 1 m/s 762 mmHg 72%
    04:00 +9°C° 0 mm 1 m/s 763 mmHg 73%
    05:00 +9°C° 0 mm 1 m/s 763 mmHg 73%
    06:00 +8°C° 0 mm 0 m/s 763 mmHg 74%
    07:00 +10°C° 0 mm 0 m/s 763 mmHg 66%
    08:00 +12°C° 0 mm 1 m/s 763 mmHg 59%
    09:00 +14°C° 0 mm 1 m/s 763 mmHg 51%
    10:00 +15°C° 0 mm 1 m/s 762 mmHg 47%
    11:00 +16°C° 0 mm 2 m/s 762 mmHg 43%
    12:00 +17°C° 0 mm 2 m/s 761 mmHg 39%
    13:00 +17°C° 0 mm 2 m/s 761 mmHg 38%
    14:00 +18°C° 0 mm 3 m/s 761 mmHg 37%
    15:00 +19°C° 0 mm 3 m/s 760 mmHg 36%
    16:00 +18°C° 0 mm 3 m/s 760 mmHg 39%
    17:00 +17°C° 0 mm 4 m/s 761 mmHg 43%
    18:00 +17°C° 0 mm 4 m/s 761 mmHg 46%
    19:00 +14°C° 0 mm 4 m/s 761 mmHg 50%
    20:00 +13°C° 0 mm 5 m/s 762 mmHg 54%
    21:00 +12°C° 0 mm 5 m/s 762 mmHg 57%
    22:00 +11°C° 0 mm 4 m/s 762 mmHg 59%
    23:00 +10°C° 0 mm 4 m/s 762 mmHg 61%

    25 Avril, Jeudi

    Heure Température Précipitation Vent Pression Humidité
    00:00 +9°C° 0 mm 3 m/s 763 mmHg 62%
    01:00 +9°C° 0 mm 2 m/s 763 mmHg 63%
    02:00 +9°C° 0 mm 2 m/s 763 mmHg 64%
    03:00 +9°C° 0 mm 1 m/s 763 mmHg 65%
    04:00 +9°C° 0 mm 1 m/s 763 mmHg 65%
    05:00 +10°C° 0 mm 1 m/s 763 mmHg 65%
    06:00 +10°C° 0 mm 1 m/s 763 mmHg 65%
    07:00 +11°C° 0 mm 1 m/s 763 mmHg 59%
    08:00 +12°C° 0 mm 1 m/s 763 mmHg 53%
    09:00 +14°C° 0 mm 1 m/s 762 mmHg 47%
    10:00 +15°C° 0 mm 1 m/s 762 mmHg 44%
    11:00 +16°C° 0 mm 1 m/s 762 mmHg 41%
    12:00 +17°C° 0 mm 2 m/s 761 mmHg 37%
    13:00 +18°C° 0 mm 2 m/s 761 mmHg 37%
    14:00 +18°C° 0 mm 2 m/s 761 mmHg 36%
    15:00 +19°C° 0 mm 3 m/s 760 mmHg 35%
    16:00 +18°C° 0 mm 3 m/s 760 mmHg 38%
    17:00 +18°C° 0 mm 3 m/s 760 mmHg 41%
    18:00 +17°C° 0 mm 2 m/s 761 mmHg 44%
    19:00 +16°C° 0 mm 2 m/s 761 mmHg 48%
    20:00 +15°C° 0 mm 2 m/s 761 mmHg 51%
    21:00 +14°C° 0 mm 2 m/s 762 mmHg 55%
    22:00 +13°C° 0 mm 2 m/s 762 mmHg 57%
    23:00 +13°C° 0 mm 2 m/s 762 mmHg 59%
    Voir plus